Temperature
0 1 1 1 1 1 0 -0 -0 -1 -1 -0 -0 -1 -1 -1 -1 -1 -1 -1 -1 -2 -2 -1 -1 -1 -1 -1 -1 -1 -1 -0 -0 0 1 1 1 2 2 2 2 2 2 2
-1 0 0 0 -0 -0 -0 -0 -1 -1 -1 -1 -1 -1 -1 -1 -2 -2 -2 -2 -2 -2 -2 -2 -2 -2 -2 -2 -2 -2 -1 -1 -1 -0 -0 0 1 1 1 1 1 1 2 2
-2 -1 -1 -1 -1 -1 -1 -2 -2 -2 -2 -2 -2 -2 -2 -2 -2 -2 -2 -3 -3 -3 -3 -3 -3 -3 -3 -2 -2 -2 -2 -2 -2 -1 -1 -0 -0 -0 0 0 1 1 1 1
-2 -2 -2 -2 -1 -1 -2 -2 -2 -2 -3 -2 -2 -2 -3 -3 -3 -3 -3 -3 -4 -4 -4 -4 -3 -3 -3 -3 -3 -3 -3 -3 -2 -2 -2 -1 -1 -1 -0 -0 -0 0 0 0
-3 -3 -3 -2 -2 -2 -2 -3 -3 -3 -3 -3 -3 -3 -3 -3 -3 -4 -4 -4 -4 -4 -4 -4 -4 -4 -4 -4 -4 -3 -3 -3 -3 -3 -2 -2 -2 -1 -1 -1 -1 -1 -0 -0
-4 -3 -3 -2 -2 -1 -2 -4 -3 -3 -4 -4 -4 -5 -4 -4 -4 -5 -5 -5 -5 -5 -5 -5 -5 -5 -5 -4 -4 -4 -4 -4 -3 -3 -3 -2 -2 -2 -2 -2 -1 -1 -1 -1
-4 -4 -4 -3 -2 -2 -3 -3 -3 -3 -4 -4 -5 -5 -5 -5 -5 -5 -5 -5 -5 -5 -5 -5 -5 -5 -5 -5 -5 -4 -4 -4 -4 -3 -3 -3 -3 -2 -2 -2 -2 -2 -2 -1
-5 -5 -4 -3 -3 -3 -4 -3 -3 -4 -4 -5 -5 -5 -5 -5 -5 -6 -6 -6 -6 -6 -6 -5 -6 -5 -5 -5 -5 -5 -5 -4 -4 -4 -4 -3 -3 -3 -3 -3 -3 -2 -2 -2
-4 -4 -3 -3 -3 -3 -3 -4 -4 -4 -5 -5 -6 -6 -6 -6 -6 -6 -6 -6 -6 -6 -6 -6 -6 -6 -6 -5 -5 -5 -5 -5 -5 -4 -4 -4 -4 -4 -3 -3 -3 -3 -3 -3
-5 -5 -4 -3 -3 -4 -4 -4 -5 -5 -5 -6 -6 -6 -6 -6 -7 -7 -7 -7 -7 -7 -7 -6 -6 -6 -6 -6 -6 -6 -5 -5 -5 -5 -5 -4 -4 -4 -4 -4 -4 -4 -4 -4
-6 -5 -4 -4 -4 -4 -5 -5 -5 -6 -6 -6 -6 -7 -7 -7 -7 -7 -7 -7 -7 -7 -7 -7 -7 -6 -6 -6 -6 -6 -6 -6 -6 -5 -5 -5 -5 -5 -5 -5 -5 -5 -4 -4
-5 -5 -5 -5 -5 -5 -5 -6 -6 -6 -6 -7 -7 -7 -7 -7 -7 -8 -8 -8 -8 -8 -7 -7 -7 -7 -7 -7 -7 -7 -7 -6 -6 -6 -6 -6 -6 -5 -5 -5 -5 -5 -5 -5
-4 -5 -5 -5 -6 -6 -6 -6 -7 -7 -7 -7 -7 -8 -8 -8 -8 -8 -8 -8 -8 -8 -8 -8 -7 -7 -7 -7 -7 -7 -7 -7 -7 -7 -7 -7 -6 -6 -6 -6 -5 -5 -5 -5
-5 -6 -6 -6 -7 -7 -7 -7 -7 -7 -8 -8 -8 -8 -8 -8 -8 -8 -8 -8 -8 -8 -8 -8 -8 -8 -8 -8 -8 -8 -8 -7 -7 -7 -7 -7 -7 -7 -7 -7 -6 -6 -5 -5
-6 -7 -7 -7 -7 -7 -8 -8 -8 -8 -8 -8 -8 -9 -9 -9 -9 -9 -9 -9 -9 -8 -8 -8 -8 -8 -8 -8 -8 -8 -8 -8 -8 -8 -8 -7 -7 -7 -7 -7 -7 -7 -6 -6
-7 -7 -7 -8 -8 -8 -8 -9 -9 -9 -9 -9 -9 -9 -9 -10 -9 -9 -9 -9 -9 -9 -9 -9 -9 -9 -9 -9 -9 -9 -8 -8 -8 -8 -8 -8 -8 -8 -8 -8 -7 -7 -7 -7
-8 -8 -8 -8 -9 -9 -9 -9 -9 -10 -10 -10 -10 -10 -10 -10 -10 -9 -9 -9 -9 -9 -9 -9 -9 -9 -9 -9 -9 -9 -9 -9 -9 -8 -8 -8 -8 -8 -8 -8 -8 -8 -7 -7
-8 -8 -9 -9 -9 -9 -9 -9 -10 -10 -10 -10 -10 -10 -10 -10 -10 -10 -10 -10 -10 -9 -9 -10 -9 -9 -9 -9 -9 -9 -9 -9 -9 -9 -9 -9 -9 -9 -8 -8 -8 -8 -8 -8
-8 -9 -9 -9 -9 -10 -10 -10 -10 -10 -10 -10 -10 -10 -10 -10 -10 -10 -10 -10 -10 -10 -10 -10 -10 -10 -10 -10 -10 -10 -10 -10 -9 -9 -9 -9 -9 -9 -9 -9 -9 -8 -8 -8
-9 -9 -9 -9 -10 -10 -10 -10 -10 -10 -10 -10 -10 -10 -10 -11 -11 -11 -11 -11 -11 -11 -10 -10 -10 -10 -10 -10 -10 -10 -10 -10 -10 -10 -9 -9 -9 -9 -9 -9 -9 -9 -9 -9
-9 -9 -9 -10 -10 -10 -10 -10 -10 -10 -10 -11 -11 -11 -11 -11 -11 -11 -11 -11 -11 -11 -11 -11 -11 -11 -11 -11 -10 -10 -10 -10 -10 -10 -10 -10 -10 -10 -10 -10 -10 -9 -9 -9
-9 -10 -10 -10 -10 -10 -10 -11 -11 -11 -11 -11 -11 -11 -11 -11 -11 -11 -11 -11 -11 -11 -11 -11 -11 -11 -11 -11 -11 -11 -11 -11 -10 -10 -10 -10 -10 -10 -10 -10 -10 -10 -10 -9
-10 -10 -10 -10 -11 -11 -11 -11 -11 -11 -11 -11 -12 -12 -12 -12 -12 -12 -12 -11 -11 -11 -11 -11 -11 -11 -11 -11 -11 -11 -11 -11 -11 -11 -11 -11 -11 -11 -10 -10 -10 -10 -10 -10
-10 -10 -11 -11 -11 -11 -11 -11 -11 -11 -12 -12 -12 -12 -12 -12 -12 -12 -12 -12 -12 -12 -12 -11 -11 -11 -11 -11 -11 -11 -11 -11 -11 -11 -11 -11 -11 -11 -11 -11 -10 -10 -10 -10
-11 -11 -11 -11 -11 -11 -11 -11 -11 -11 -12 -12 -12 -12 -12 -12 -13 -12 -12 -12 -12 -12 -12 -12 -12 -12 -11 -11 -11 -11 -11 -11 -11 -11 -11 -11 -11 -11 -11 -11 -10 -10 -10 -10
-11 -11 -11 -12 -12 -12 -12 -12 -12 -12 -12 -12 -12 -12 -12 -13 -13 -12 -12 -12 -12 -12 -12 -12 -12 -12 -12 -12 -12 -12 -12 -12 -11 -11 -11 -11 -11 -11 -11 -11 -11 -10 -10 -10
-11 -11 -11 -12 -12 -12 -12 -12 -12 -12 -12 -13 -13 -13 -13 -13 -13 -13 -13 -13 -13 -13 -13 -12 -12 -12 -12 -12 -12 -12 -12 -12 -12 -12 -11 -11 -11 -11 -11 -11 -11 -11 -10 -10
Wind_Speed
8 9 7 10 11 7 7 8 8 9 10 12 8 8 7 7 7 8 7 7 7 7 7 7 7 6 5 5 5 5 4 4 5 5 4 4 3 3 2 2 3 3 3 3
7 8 7 10 9 7 7 7 9 10 11 8 7 6 7 7 8 7 7 8 8 7 7 7 7 7 6 6 6 5 5 5 5 5 5 4 3 3 3 2 2 2 3 3
6 7 6 6 6 4 3 4 5 8 8 7 7 8 8 8 8 7 8 9 8 8 8 8 7 7 6 6 5 5 5 5 5 5 5 5 4 3 3 2 2 2 3 3
4 4 7 6 1 1 3 5 5 4 5 7 9 8 7 6 6 7 9 9 9 8 8 8 7 7 6 5 5 5 5 5 5 5 5 5 3 3 3 2 2 2 3 3
2 4 7 6 2 1 3 7 3 4 8 9 7 7 5 4 5 7 8 9 8 8 8 8 7 6 5 5 5 5 5 5 5 5 5 4 4 3 3 3 3 3 3 3
3 4 6 5 3 2 1 5 3 4 8 8 6 7 7 7 9 10 9 8 8 8 7 7 7 6 4 5 5 5 5 5 6 5 5 4 4 3 3 3 3 3 3 3
6 7 7 5 4 2 1 6 5 6 7 6 6 7 8 9 9 9 9 9 8 8 7 7 7 5 5 5 6 6 6 5 5 5 5 4 3 3 2 3 2 2 3 3
4 5 8 3 0 2 6 4 5 6 6 7 8 9 9 9 9 10 9 9 8 8 8 7 6 5 5 6 6 6 5 5 5 5 4 3 2 3 2 2 2 2 2 2
7 7 4 2 4 4 3 5 5 5 7 7 8 9 10 9 9 9 9 9 8 8 8 7 6 5 6 6 6 5 5 5 5 5 4 3 2 3 2 1 2 2 2 2
5 7 5 5 4 4 5 5 6 6 7 7 8 9 9 9 9 9 9 8 7 7 8 8 7 6 5 5 5 4 5 5 5 4 3 3 2 2 2 2 2 3 3 3
6 7 5 4 5 5 5 5 6 6 6 6 7 9 9 8 9 8 9 8 7 7 8 8 8 7 6 5 4 4 5 5 5 4 3 3 3 2 3 4 5 5 4 4
7 6 5 6 6 4 5 6 6 6 7 7 7 8 8 8 8 8 8 8 8 8 8 8 7 7 6 5 4 4 5 5 4 3 3 3 3 4 4 4 7 7 7 6
5 4 4 5 5 3 4 6 6 6 7 8 7 7 7 8 8 8 8 8 8 8 8 7 7 7 6 5 4 4 5 5 4 4 3 3 3 2 4 5 6 5 5 5
2 2 3 3 4 5 5 6 6 6 6 6 7 7 7 7 8 8 9 9 9 8 7 6 6 6 6 5 5 5 4 5 4 3 3 3 3 3 2 3 4 4 5 5
3 3 4 4 4 5 5 5 6 7 7 7 6 7 7 8 9 9 9 9 9 8 7 6 6 7 6 5 5 5 4 3 3 3 3 3 2 2 2 3 3 4 4 4
4 3 3 4 5 6 6 6 6 7 7 7 7 8 8 8 9 9 9 8 8 8 8 7 7 7 7 6 5 4 4 5 4 3 3 2 2 2 2 2 3 3 3 3
2 4 5 6 6 7 6 6 6 7 7 8 8 8 8 8 8 9 9 8 7 7 8 7 8 8 6 5 5 4 3 4 5 3 2 2 2 2 2 2 3 3 4 4
2 4 4 5 5 6 7 7 6 7 7 7 8 7 7 7 8 9 9 9 8 8 7 7 7 7 6 6 5 3 3 3 3 3 3 3 2 2 2 3 3 4 4 4
3 4 4 5 5 5 6 6 6 6 7 7 7 7 7 7 7 8 8 8 8 8 8 7 10 7 6 7 6 3 3 3 3 3 3 3 3 2 2 3 3 3 3 3
3 4 4 5 5 5 5 6 6 6 6 6 6 7 7 7 7 7 7 7 6 6 7 8 7 6 6 5 6 2 3 3 3 3 3 3 2 3 3 3 3 3 3 3
5 5 5 5 6 6 5 6 6 7 7 6 6 6 7 7 7 6 6 7 7 7 7 9 6 5 5 5 5 2 3 3 3 3 3 3 3 3 3 3 3 3 3 3
4 5 5 5 5 6 6 5 5 6 6 6 6 6 6 7 7 6 5 5 7 10 7 5 5 6 7 6 3 3 3 3 3 3 3 3 3 3 3 3 3 3 3 3
4 5 5 5 5 6 6 5 5 5 5 6 6 6 6 6 5 5 6 5 5 10 7 4 7 9 8 4 3 3 3 3 3 3 3 3 3 3 3 3 3 3 3 3
4 4 5 5 4 4 6 6 5 5 5 5 5 5 5 5 5 3 4 9 11 11 6 7 10 10 9 4 3 3 3 3 3 3 3 3 3 3 3 3 3 3 3 4
4 4 4 4 4 4 5 6 5 5 5 4 5 5 4 3 4 5 5 6 10 9 6 8 11 10 6 4 4 3 3 3 3 3 2 3 3 3 3 3 3 3 4 4
3 3 4 4 4 4 4 4 4 4 5 5 5 5 4 4 4 5 5 5 7 8 6 5 6 7 5 4 4 4 3 4 4 3 3 3 3 3 3 3 4 4 4 4
3 3 3 3 3 3 3 3 4 4 4 5 6 5 5 5 5 5 5 5 5 5 5 5 5 5 4 4 4 4 4 3 3 3 3 3 3 3 3 4 4 4 4 4
Wind_Direction
262 271 271 272 277 270 242 236 242 257 264 280 292 298 306 312 315 320 322 328 328 324 323 325 323 319 315 313 314 317 319 319 316 316 316 318 316 298 279 260 249 238 234 233
283 276 275 277 276 268 258 252 251 263 273 280 301 310 315 316 313 312 316 319 319 321 321 319 318 314 314 313 312 313 311 311 315 318 321 320 316 309 302 279 259 241 237 236
275 299 311 271 258 251 251 262 250 257 266 300 315 317 311 310 306 303 314 318 317 315 312 308 308 306 303 303 307 308 306 310 315 317 318 317 314 313 302 290 270 255 241 237
276 319 262 255 247 211 257 277 266 256 288 302 299 297 299 299 303 315 316 315 313 311 309 309 306 306 304 305 305 305 305 307 312 313 313 311 308 303 300 295 284 275 258 243
237 264 270 279 276 264 262 282 262 282 300 308 312 312 299 310 325 315 310 309 306 304 304 306 305 304 306 309 308 306 306 306 306 304 307 307 307 301 303 297 294 285 272 250
219 246 254 251 281 307 320 281 301 319 306 309 325 312 299 318 318 315 315 315 313 314 313 311 306 306 303 304 304 300 301 302 300 297 300 294 293 296 299 297 294 295 287 269
228 242 262 259 294 10 257 271 305 306 299 295 284 273 286 302 308 309 309 311 314 316 315 309 305 304 297 298 294 297 301 301 301 297 296 285 288 292 292 300 301 298 293 289
207 232 257 250 98 208 245 280 294 299 299 293 287 291 297 302 306 310 313 314 317 316 313 313 309 302 296 291 295 302 301 300 299 300 297 290 286 293 285 279 286 289 288 295
208 229 258 230 232 255 270 281 288 292 293 290 293 297 303 305 306 309 312 314 314 310 311 314 312 300 289 294 301 303 304 303 301 304 298 283 269 279 289 266 264 273 267 271
255 262 271 275 272 286 283 281 288 287 289 289 290 296 302 305 309 311 312 313 314 314 315 316 316 309 295 299 303 302 301 302 301 302 297 298 286 275 274 265 258 262 261 261
255 271 289 273 267 275 289 295 296 296 294 293 296 299 300 303 306 308 311 311 310 309 308 307 311 309 307 306 304 301 301 303 306 304 291 293 295 281 273 265 257 259 253 248
251 250 247 271 282 279 288 296 298 301 307 308 303 300 304 304 303 305 307 308 309 307 305 305 308 308 308 305 299 296 302 304 303 301 295 294 300 315 311 300 297 289 271 266
248 264 257 273 292 298 295 302 307 304 301 304 307 303 305 305 307 309 310 311 308 305 304 302 303 304 308 309 306 298 294 297 298 297 293 293 295 300 314 327 325 313 302 287
269 281 280 283 295 308 307 305 306 306 304 304 305 309 309 307 309 311 311 311 309 307 305 304 304 304 307 308 305 303 299 298 298 289 288 286 287 291 291 298 312 317 313 305
291 275 266 288 302 312 316 316 317 317 319 319 317 315 313 312 311 310 311 313 315 315 314 313 311 310 311 307 305 301 298 296 292 290 289 285 287 290 292 297 300 308 313 309
303 308 305 307 306 312 320 322 318 316 318 317 318 317 314 310 308 309 312 316 316 314 313 313 310 310 310 308 307 302 296 303 306 296 291 291 293 292 294 295 298 302 301 301
303 304 309 310 310 312 311 306 303 304 309 311 311 313 315 315 316 316 318 318 311 306 307 308 308 310 311 309 306 303 302 305 309 302 286 282 281 283 286 285 285 290 295 296
271 277 281 285 296 304 308 311 308 307 306 306 310 313 314 315 313 313 316 320 319 315 312 310 311 315 316 314 311 307 307 303 298 289 288 285 285 285 286 287 288 289 297 301
311 301 301 302 300 298 300 303 307 308 308 311 312 311 308 306 305 307 312 318 319 316 314 312 319 324 318 317 322 311 310 306 305 299 291 289 296 295 293 292 292 292 292 299
317 316 312 311 310 305 303 307 309 308 308 310 309 311 311 310 310 311 314 312 305 299 303 313 320 320 318 316 325 317 312 306 306 305 302 297 295 294 294 294 294 292 293 298
306 308 308 307 309 307 302 304 306 307 312 313 310 308 310 312 314 314 318 319 319 318 319 323 327 318 316 327 336 333 325 317 313 309 304 301 299 294 291 291 293 296 298 301
297 298 299 302 306 308 308 306 303 303 311 316 315 313 313 316 319 318 307 300 310 322 329 324 319 321 333 343 347 341 333 326 320 317 313 303 295 292 288 288 290 296 299 302
289 290 296 299 300 302 309 311 307 306 308 311 314 315 314 312 315 318 319 321 321 328 334 325 327 334 344 354 344 334 328 323 319 315 310 307 301 295 295 296 295 294 296 299
290 293 296 301 307 312 315 315 315 311 306 305 308 309 310 315 318 309 299 320 332 334 339 337 343 347 354 357 342 333 327 324 318 311 309 311 312 313 309 305 303 302 297 296
290 294 298 310 313 308 305 311 317 320 321 321 322 322 317 309 306 314 318 323 332 339 342 344 349 353 358 348 341 333 326 319 317 323 320 316 313 310 306 304 302 301 298 295
295 298 296 293 294 299 306 313 318 321 324 327 328 326 326 325 320 321 325 329 334 342 346 341 342 347 347 342 339 335 328 325 328 326 317 313 309 308 306 305 301 298 295 294
303 303 307 313 312 310 309 312 315 320 324 321 319 325 330 333 335 338 338 340 341 342 342 343 342 342 340 339 338 336 334 330 326 321 318 313 309 304 302 301 300 298 297 298
Height
1536 1533 1531 1530 1527 1526 1527 1526 1526 1521 1518 1513 1512 1510 1508 1505 1502 1499 1496 1494 1491 1488 1485 1483 1480 1478 1476 1474 1473 1471 1469 1468 1467 1466 1465 1465 1465 1465 1465 1466 1466 1467 1467 1468
1536 1529 1528 1526 1524 1523 1522 1522 1520 1518 1515 1511 1510 1508 1505 1502 1500 1497 1494 1491 1488 1486 1483 1480 1477 1475 1473 1471 1469 1468 1466 1465 1463 1462 1462 1461 1461 1461 1461 1461 1462 1462 1463 1463
1537 1531 1529 1527 1522 1520 1521 1519 1518 1516 1513 1510 1508 1505 1503 1500 1497 1494 1492 1489 1486 1482 1479 1477 1474 1472 1469 1467 1466 1464 1463 1461 1460 1459 1458 1457 1457 1457 1457 1457 1457 1457 1458 1459
1538 1536 1536 1525 1519 1518 1518 1516 1514 1512 1511 1508 1506 1503 1500 1498 1495 1492 1489 1486 1482 1479 1476 1473 1470 1468 1466 1464 1462 1460 1459 1457 1456 1455 1455 1454 1453 1453 1453 1453 1453 1453 1453 1454
1539 1539 1530 1522 1518 1517 1517 1515 1512 1510 1508 1506 1503 1499 1496 1495 1493 1490 1486 1483 1479 1476 1472 1469 1466 1463 1461 1459 1458 1456 1455 1454 1453 1452 1451 1450 1449 1449 1449 1449 1449 1449 1449 1450
1538 1536 1530 1520 1516 1513 1515 1514 1510 1508 1506 1504 1501 1499 1493 1491 1489 1485 1482 1479 1475 1471 1468 1464 1462 1459 1457 1455 1454 1452 1451 1450 1449 1448 1447 1447 1446 1446 1445 1445 1445 1445 1445 1445
1537 1535 1525 1517 1514 1514 1519 1514 1508 1506 1504 1502 1500 1498 1493 1488 1485 1482 1478 1474 1471 1467 1463 1460 1458 1455 1453 1451 1450 1449 1448 1447 1445 1444 1444 1443 1443 1443 1442 1441 1441 1441 1441 1441
1534 1534 1525 1513 1513 1514 1512 1508 1506 1504 1501 1499 1496 1492 1489 1485 1481 1478 1474 1470 1467 1463 1459 1456 1454 1452 1449 1447 1446 1445 1444 1443 1442 1441 1440 1440 1439 1439 1439 1438 1437 1437 1437 1437
1524 1520 1512 1510 1510 1509 1508 1505 1503 1501 1498 1496 1492 1488 1485 1481 1477 1473 1470 1466 1463 1460 1456 1453 1450 1448 1446 1444 1443 1441 1440 1439 1438 1437 1437 1436 1436 1435 1435 1434 1434 1433 1433 1433
1518 1512 1509 1508 1507 1506 1505 1502 1500 1497 1495 1492 1488 1484 1481 1477 1473 1470 1466 1462 1459 1456 1452 1449 1447 1445 1443 1441 1439 1438 1436 1435 1434 1433 1433 1432 1432 1431 1431 1430 1430 1430 1430 1430
1513 1509 1507 1504 1504 1502 1500 1498 1496 1493 1491 1488 1484 1481 1477 1473 1470 1466 1462 1459 1456 1453 1449 1446 1444 1441 1440 1438 1436 1434 1433 1431 1430 1429 1429 1428 1428 1428 1427 1427 1427 1427 1427 1427
1509 1505 1505 1502 1500 1499 1497 1494 1492 1489 1486 1483 1481 1477 1473 1470 1466 1462 1459 1455 1452 1449 1446 1443 1440 1438 1436 1434 1433 1431 1429 1428 1427 1426 1425 1425 1424 1424 1424 1424 1424 1424 1424 1424
1503 1501 1501 1498 1497 1495 1493 1490 1488 1485 1483 1479 1476 1473 1470 1466 1462 1459 1455 1452 1448 1445 1442 1439 1437 1434 1432 1431 1429 1427 1426 1425 1424 1423 1422 1422 1421 1420 1419 1419 1420 1420 1420 1420
1500 1499 1497 1495 1494 1492 1489 1487 1484 1482 1479 1476 1472 1469 1466 1462 1458 1455 1452 1448 1445 1442 1439 1436 1433 1431 1429 1427 1426 1424 1423 1422 1421 1420 1419 1419 1418 1418 1417 1416 1415 1415 1416 1416
1498 1497 1495 1493 1491 1488 1486 1483 1480 1477 1474 1471 1468 1465 1462 1458 1455 1452 1448 1445 1442 1439 1436 1433 1430 1428 1426 1424 1422 1421 1420 1419 1418 1417 1417 1416 1416 1415 1415 1414 1413 1413 1412 1412
1495 1493 1492 1490 1487 1485 1482 1480 1477 1474 1471 1468 1465 1462 1459 1455 1452 1449 1446 1443 1439 1436 1433 1430 1428 1426 1424 1422 1419 1418 1417 1416 1416 1415 1414 1414 1413 1413 1412 1411 1411 1410 1409 1409
1492 1490 1488 1486 1484 1482 1480 1477 1474 1471 1468 1465 1462 1459 1456 1452 1449 1446 1443 1440 1437 1434 1431 1428 1426 1423 1421 1419 1417 1415 1414 1413 1413 1412 1412 1411 1411 1410 1410 1409 1408 1408 1407 1406
1491 1489 1487 1485 1482 1480 1477 1475 1472 1469 1466 1463 1460 1456 1453 1449 1446 1443 1440 1437 1434 1431 1429 1426 1423 1421 1419 1417 1415 1413 1412 1411 1410 1410 1409 1409 1408 1408 1407 1407 1406 1405 1404 1404
1488 1486 1484 1482 1480 1477 1475 1472 1469 1466 1463 1460 1457 1453 1450 1447 1444 1441 1438 1434 1431 1428 1426 1423 1421 1419 1416 1414 1413 1411 1410 1409 1408 1408 1407 1407 1406 1406 1405 1404 1404 1403 1402 1401
1486 1484 1482 1480 1478 1475 1472 1470 1467 1464 1461 1458 1454 1451 1448 1445 1442 1438 1435 1432 1429 1426 1423 1421 1418 1416 1414 1412 1411 1409 1408 1407 1406 1405 1405 1404 1404 1403 1403 1402 1401 1401 1400 1399
1483 1481 1479 1477 1475 1473 1470 1467 1464 1461 1458 1455 1452 1448 1445 1442 1439 1436 1432 1429 1427 1424 1421 1419 1417 1414 1412 1411 1409 1408 1407 1405 1404 1403 1403 1402 1401 1401 1401 1400 1399 1399 1398 1397
1481 1479 1477 1475 1472 1470 1467 1464 1461 1458 1455 1452 1449 1446 1443 1440 1437 1434 1431 1428 1425 1422 1420 1417 1415 1413 1411 1409 1408 1406 1405 1404 1403 1402 1401 1400 1399 1399 1398 1398 1397 1397 1396 1395
1478 1476 1474 1472 1469 1467 1464 1462 1459 1456 1453 1450 1447 1444 1441 1438 1435 1432 1428 1427 1424 1421 1418 1416 1414 1412 1410 1408 1406 1405 1403 1402 1401 1400 1399 1398 1398 1397 1396 1396 1395 1395 1394 1393
1475 1473 1471 1469 1467 1464 1461 1459 1456 1453 1451 1448 1445 1442 1439 1436 1433 1431 1428 1425 1422 1419 1417 1415 1412 1410 1408 1406 1404 1403 1401 1400 1399 1398 1397 1397 1396 1395 1395 1394 1393 1393 1392 1391
1472 1470 1468 1466 1464 1461 1459 1456 1454 1451 1448 1446 1443 1440 1438 1435 1432 1429 1426 1423 1420 1418 1415 1413 1411 1409 1407 1405 1403 1401 1400 1399 1397 1396 1396 1395 1394 1394 1393 1392 1392 1391 1390 1389
1469 1468 1466 1464 1462 1459 1457 1454 1452 1449 1446 1443 1441 1439 1436 1433 1430 1427 1424 1422 1419 1416 1414 1412 1409 1407 1405 1403 1401 1400 1398 1397 1396 1395 1394 1393 1392 1392 1391 1390 1390 1389 1388 1387
1467 1465 1463 1461 1459 1457 1455 1453 1450 1447 1445 1442 1439 1437 1434 1432 1429 1426 1423 1420 1418 1415 1413 1410 1408 1406 1404 1402 1400 1398 1397 1396 1394 1393 1392 1392 1391 1390 1389 1388 1388 1387 1386 1385